FENGYUN 3E (49008 NORAD) Tracking and Keplerian Element Data

This shows tracking and keplerian element data for the satellite.

Feedback or suggestion? Click here.




ElementValue
Catalog49008
NameFENGYUN 3E
Epoch Orbit357
Epoch Day211.11910487
Epoch Year2021
RAAN213.2797
Inclination98.7003
Eccentricity0.0001459
Argument of Perigee168.6559
Mean Anonmoly279.2091
Mean Motion14.19811012
Decay Rate-3.5E-07
L11 49008U 21062A 21211.11910487 -.00000035 00000-0 41535-5 0 9992
L22 49008 98.7003 213.2797 0001459 168.6559 279.2091 14.19811012 3573

Live tracking and technical data element details for FENGYUN 3E (NORAD 49008). FENGYUN 3E can be tracked NOW for your location showing map with azimuth and elevation plus other details from your city location.

Track the satellite on the map from your city or location and see movement details for azimuth, elevation, latitude, longitude, range, height, and movement on the map or in text.







IsCatalogInMostPopularTable: catalog: 49008, numindb: 2
Update: records affected: 1



GetName: 49008 FENGYUN 3E

Hit Count: updated at: Sat, 31 Jul 2021 15:35:41 GMT